Hourly Weather Oran

Today, 13 July, Monday

Time Temperature Precipitation Wind Pressure Humidity
00:00 +27°C° 0 mm 2 mps 751 mmHg 74%
01:00 +26°C° 0 mm 2 mps 751 mmHg 77%
02:00 +26°C° 0 mm 2 mps 751 mmHg 81%
03:00 +25°C° 0 mm 2 mps 750 mmHg 84%
04:00 +25°C° 0 mm 2 mps 750 mmHg 83%
05:00 +25°C° 0 mm 2 mps 751 mmHg 83%
06:00 +25°C° 0 mm 3 mps 751 mmHg 82%
07:00 +26°C° 0 mm 3 mps 751 mmHg 76%
08:00 +28°C° 0 mm 3 mps 752 mmHg 70%
09:00 +29°C° 0 mm 3 mps 752 mmHg 64%
10:00 +30°C° 0 mm 3 mps 752 mmHg 59%
11:00 +32°C° 0 mm 4 mps 752 mmHg 55%
12:00 +33°C° 0 mm 4 mps 752 mmHg 50%
13:00 +33°C° 0 mm 4 mps 751 mmHg 50%
14:00 +33°C° 0 mm 4 mps 751 mmHg 49%
15:00 +33°C° 0 mm 5 mps 750 mmHg 48%
16:00 +33°C° 0 mm 5 mps 750 mmHg 49%
17:00 +32°C° 0 mm 5 mps 750 mmHg 51%
18:00 +30°C° 0 mm 5 mps 750 mmHg 52%
19:00 +29°C° 0 mm 4 mps 751 mmHg 57%
20:00 +28°C° 0 mm 3 mps 751 mmHg 61%
21:00 +26°C° 0 mm 2 mps 752 mmHg 66%
22:00 +26°C° 0 mm 2 mps 751 mmHg 70%
23:00 +25°C° 0 mm 2 mps 751 mmHg 73%

Tomorrow, 14 July, Tuesday

Time Temperature Precipitation Wind Pressure Humidity
00:00 +25°C° 0 mm 2 mps 751 mmHg 77%
01:00 +24°C° 0 mm 2 mps 751 mmHg 80%
02:00 +24°C° 0 mm 2 mps 750 mmHg 84%
03:00 +23°C° 0 mm 2 mps 750 mmHg 88%
04:00 +24°C° 0 mm 2 mps 750 mmHg 87%
05:00 +24°C° 0 mm 2 mps 750 mmHg 85%
06:00 +24°C° 0 mm 2 mps 750 mmHg 84%
07:00 +26°C° 0 mm 2 mps 750 mmHg 76%
08:00 +27°C° 0 mm 3 mps 750 mmHg 68%
09:00 +29°C° 0 mm 3 mps 750 mmHg 59%
10:00 +32°C° 0 mm 4 mps 750 mmHg 53%
11:00 +33°C° 0 mm 5 mps 750 mmHg 47%
12:00 +35°C° 0 mm 6 mps 749 mmHg 40%
13:00 +35°C° 0 mm 6 mps 749 mmHg 40%
14:00 +35°C° 0 mm 7 mps 748 mmHg 40%
15:00 +35°C° 0 mm 7 mps 748 mmHg 39%
16:00 +34°C° 0 mm 7 mps 748 mmHg 42%
17:00 +33°C° 0 mm 7 mps 747 mmHg 45%
18:00 +32°C° 0 mm 7 mps 747 mmHg 47%
19:00 +30°C° 0 mm 6 mps 747 mmHg 51%
20:00 +29°C° 0 mm 6 mps 748 mmHg 55%
21:00 +27°C° 0 mm 5 mps 748 mmHg 58%
22:00 +27°C° 0.1 mm 4 mps 748 mmHg 61%
23:00 +27°C° 0.1 mm 4 mps 748 mmHg 64%

Day after tomorrow, 15 July, Wednesday

Time Temperature Precipitation Wind Pressure Humidity
00:00 +26°C° 0.1 mm 4 mps 748 mmHg 67%
01:00 +26°C° 0 mm 4 mps 748 mmHg 69%
02:00 +26°C° 0 mm 4 mps 748 mmHg 71%
03:00 +25°C° 0 mm 4 mps 747 mmHg 73%
04:00 +26°C° 0 mm 4 mps 748 mmHg 73%
05:00 +26°C° 0 mm 4 mps 748 mmHg 74%
06:00 +26°C° 0 mm 4 mps 748 mmHg 74%
07:00 +28°C° 0 mm 4 mps 749 mmHg 65%
08:00 +30°C° 0 mm 4 mps 749 mmHg 56%
09:00 +33°C° 0 mm 5 mps 749 mmHg 47%
10:00 +34°C° 0 mm 6 mps 749 mmHg 44%
11:00 +35°C° 0 mm 7 mps 749 mmHg 41%
12:00 +37°C° 0 mm 8 mps 749 mmHg 38%
13:00 +37°C° 0 mm 8 mps 748 mmHg 40%
14:00 +37°C° 0 mm 8 mps 748 mmHg 42%
15:00 +35°C° 0 mm 9 mps 748 mmHg 43%
16:00 +34°C° 0 mm 8 mps 748 mmHg 45%
17:00 +33°C° 0 mm 8 mps 748 mmHg 47%
18:00 +32°C° 0 mm 7 mps 748 mmHg 48%
19:00 +30°C° 0 mm 6 mps 749 mmHg 53%
20:00 +29°C° 0 mm 5 mps 749 mmHg 57%
21:00 +28°C° 0 mm 4 mps 750 mmHg 61%
22:00 +28°C° 0 mm 4 mps 750 mmHg 64%
23:00 +27°C° 0 mm 4 mps 750 mmHg 68%

16 July, Thursday

Time Temperature Precipitation Wind Pressure Humidity
00:00 +27°C° 0 mm 4 mps 749 mmHg 71%
01:00 +26°C° 0 mm 4 mps 749 mmHg 75%
02:00 +26°C° 0 mm 4 mps 749 mmHg 80%
03:00 +25°C° 0 mm 4 mps 749 mmHg 84%
04:00 +25°C° 0 mm 4 mps 749 mmHg 84%
05:00 +25°C° 0 mm 4 mps 750 mmHg 85%
06:00 +25°C° 0 mm 4 mps 750 mmHg 85%
07:00 +27°C° 0 mm 4 mps 750 mmHg 77%
08:00 +28°C° 0 mm 4 mps 750 mmHg 69%
09:00 +30°C° 0 mm 4 mps 751 mmHg 61%
10:00 +32°C° 0 mm 5 mps 750 mmHg 56%
11:00 +34°C° 0 mm 5 mps 750 mmHg 51%
12:00 +35°C° 0 mm 6 mps 750 mmHg 46%
13:00 +35°C° 0 mm 6 mps 750 mmHg 47%
14:00 +35°C° 0 mm 7 mps 750 mmHg 48%
15:00 +34°C° 0 mm 8 mps 749 mmHg 48%
16:00 +33°C° 0 mm 7 mps 749 mmHg 51%
17:00 +32°C° 0 mm 7 mps 749 mmHg 53%
18:00 +30°C° 0 mm 6 mps 749 mmHg 55%
19:00 +29°C° 0 mm 5 mps 750 mmHg 59%
20:00 +28°C° 0 mm 4 mps 750 mmHg 62%
21:00 +27°C° 0 mm 4 mps 751 mmHg 66%
22:00 +27°C° 0 mm 3 mps 751 mmHg 69%
23:00 +26°C° 0 mm 3 mps 750 mmHg 72%

17 July, Friday

Time Temperature Precipitation Wind Pressure Humidity
00:00 +26°C° 0 mm 3 mps 750 mmHg 75%
01:00 +25°C° 0 mm 3 mps 750 mmHg 77%
02:00 +25°C° 0 mm 3 mps 750 mmHg 80%
03:00 +25°C° 0 mm 3 mps 750 mmHg 82%
04:00 +25°C° 0 mm 3 mps 750 mmHg 82%
05:00 +25°C° 0 mm 3 mps 750 mmHg 82%
06:00 +25°C° 0 mm 3 mps 750 mmHg 82%
07:00 +27°C° 0 mm 3 mps 750 mmHg 73%
08:00 +28°C° 0 mm 3 mps 750 mmHg 64%
09:00 +30°C° 0 mm 3 mps 750 mmHg 55%
10:00 +33°C° 0 mm 3 mps 750 mmHg 50%
11:00 +34°C° 0 mm 4 mps 750 mmHg 45%
12:00 +36°C° 0 mm 4 mps 750 mmHg 40%
13:00 +36°C° 0 mm 5 mps 750 mmHg 40%
14:00 +36°C° 0 mm 5 mps 749 mmHg 40%
15:00 +36°C° 0 mm 6 mps 749 mmHg 40%
16:00 +35°C° 0 mm 6 mps 749 mmHg 43%
17:00 +33°C° 0 mm 6 mps 749 mmHg 46%
18:00 +32°C° 0 mm 7 mps 748 mmHg 49%
19:00 +30°C° 0 mm 6 mps 749 mmHg 52%
20:00 +29°C° 0 mm 5 mps 750 mmHg 55%
21:00 +28°C° 0 mm 4 mps 750 mmHg 58%
22:00 +27°C° 0 mm 4 mps 751 mmHg 61%
23:00 +27°C° 0 mm 3 mps 751 mmHg 64%

18 July, Saturday

Time Temperature Precipitation Wind Pressure Humidity
00:00 +26°C° 0 mm 2 mps 751 mmHg 67%
01:00 +26°C° 0 mm 3 mps 751 mmHg 69%
02:00 +26°C° 0 mm 3 mps 750 mmHg 71%
03:00 +25°C° 0 mm 3 mps 750 mmHg 74%
04:00 +25°C° 0 mm 3 mps 750 mmHg 73%
05:00 +26°C° 0 mm 3 mps 750 mmHg 72%
06:00 +26°C° 0 mm 3 mps 750 mmHg 71%
07:00 +28°C° 0 mm 3 mps 751 mmHg 62%
08:00 +29°C° 0 mm 4 mps 751 mmHg 54%
09:00 +32°C° 0 mm 4 mps 751 mmHg 45%
10:00 +33°C° 0 mm 5 mps 751 mmHg 42%
11:00 +35°C° 0 mm 5 mps 751 mmHg 38%
12:00 +36°C° 0 mm 5 mps 750 mmHg 35%
13:00 +36°C° 0 mm 6 mps 750 mmHg 36%
14:00 +36°C° 0 mm 7 mps 750 mmHg 37%
15:00 +35°C° 0 mm 8 mps 749 mmHg 38%
16:00 +34°C° 0 mm 7 mps 749 mmHg 41%
17:00 +33°C° 0 mm 7 mps 749 mmHg 45%
18:00 +30°C° 0 mm 7 mps 749 mmHg 48%
19:00 +29°C° 0 mm 6 mps 750 mmHg 52%
20:00 +28°C° 0 mm 5 mps 750 mmHg 55%
21:00 +27°C° 0 mm 4 mps 751 mmHg 59%
22:00 +27°C° 0 mm 4 mps 751 mmHg 61%
23:00 +26°C° 0 mm 3 mps 751 mmHg 63%
Show more